Location: Silverdale
(47.6506°N, 122.6941°W)
Time: 04:00:32
(UTC+00:00)

Courier 1B Rocket - Pass Details

Date: 10 October 2022
Orbit: 920 x 1202 km, 28.3° (Epoch: 28 November)

Event Time Altitude Azimuth Distance (km) Brightness Sun altitude
Rises 01:55:09 0° 233° (SW) 3,933 9.3 -4.4°
Reaches altitude 10° 01:59:25 10° 211° (SSW) 2,912 8.0 -5.1°
Maximum altitude 02:03:00 15° 180° (S) 2,532 7.2 -5.7°
Drops below altitude 10° 02:06:29 10° 149° (SSE) 2,803 7.1 -6.3°
Sets 02:10:28 0° 127° (SE) 3,694 7.6 -7.0°
